| time (UTC) | temp F | wind direction | speed MPH | gust MPH | rain 1hr in | rain 24hr in | rain mn in | humidity % | barometer mb |
| 20260903053436 | 59 | 224 | 1.0 | 17.0 | 0.00 | 0.00 | 0.00 | 73 | 961.6 |
| 20260903052944 | 59 | 172 | 6.0 | 15.0 | 0.00 | 0.00 | 0.00 | 74 | 961.7 |
| 20260903052937 | 59 | 248 | 6.0 | 17.0 | 0.00 | 0.00 | 0.00 | 73 | 961.6 |
| 20260903051937 | 59 | 217 | 4.0 | 17.0 | 0.00 | 0.00 | 0.00 | 75 | 961.9 |
| 20260903051435 | 59 | 212 | 2.0 | 18.0 | 0.00 | 0.00 | 0.00 | 75 | 961.9 |
| 20260903050937 | 59 | 248 | 6.0 | 20.0 | 0.00 | 0.00 | 0.00 | 75 | 962.0 |
| 20260903050435 | 59 | 245 | 6.0 | 20.0 | 0.00 | 0.00 | 0.00 | 76 | 962.0 |
| 20260903045936 | 59 | 248 | 7.0 | 24.0 | 0.00 | 0.00 | 0.00 | 76 | 962.0 |
| 20260903045434 | 59 | 161 | 10.0 | 24.0 | 0.00 | 0.00 | 0.00 | 76 | 962.2 |
| 20260903044943 | 59 | 275 | 9.0 | 21.0 | 0.00 | 0.00 | 0.00 | 76 | 962.3 |
| 20260903044435 | 59 | 216 | 4.0 | 20.0 | 0.00 | 0.00 | 0.00 | 76 | 962.3 |
| 20260903043936 | 59 | 190 | 5.0 | 18.0 | 0.00 | 0.00 | 0.00 | 76 | 962.3 |
| 20260903043435 | 59 | 251 | 6.0 | 18.0 | 0.00 | 0.00 | 0.00 | 75 | 962.4 |
| 20260903042935 | 59 | 258 | 10.0 | 20.0 | 0.00 | 0.00 | 0.00 | 76 | 962.4 |
| 20260903042433 | 59 | 220 | 6.0 | 20.0 | 0.00 | 0.00 | 0.00 | 77 | 962.5 |
| 20260903041935 | 59 | 204 | 7.0 | 19.0 | 0.00 | 0.00 | 0.00 | 77 | 962.6 |
| 20260903041434 | 59 | 248 | 5.0 | 22.0 | 0.00 | 0.00 | 0.00 | 78 | 962.7 |
| 20260903040935 | 59 | 243 | 6.0 | 22.0 | 0.00 | 0.00 | 0.00 | 78 | 962.8 |
| 20260903040433 | 60 | 169 | 6.0 | 15.0 | 0.00 | 0.00 | 0.00 | 78 | 962.7 |
| 20260903035935 | 60 | 216 | 4.0 | 14.0 | 0.00 | 0.00 | 0.00 | 78 | 962.9 |
| 20260903035441 | 60 | 213 | 6.0 | 18.0 | 0.00 | 0.00 | 0.00 | 78 | 963.1 |
| 20260903035433 | 60 | 216 | 3.0 | 18.0 | 0.00 | 0.00 | 0.00 | 78 | 963.0 |
| 20260903034440 | 60 | 188 | 3.0 | 11.0 | 0.00 | 0.00 | 0.00 | 78 | 963.2 |
| 20260903034432 | 60 | 258 | 5.0 | 11.0 | 0.00 | 0.00 | 0.00 | 78 | 963.2 |
| 20260903033603 | 61 | 183 | 3.0 | 11.0 | 0.00 | 0.00 | 0.00 | 75 | 963.2 |
| 20260903033432 | 60 | 241 | 2.0 | 12.0 | 0.00 | 0.00 | 0.00 | 77 | 963.4 |
| 20260903032934 | 60 | 216 | 3.0 | 14.0 | 0.00 | 0.00 | 0.00 | 77 | 963.4 |
| 20260903032438 | 61 | 252 | 3.0 | 12.0 | 0.00 | 0.00 | 0.00 | 75 | 963.1 |
| 20260903032432 | 60 | 223 | 4.0 | 14.0 | 0.00 | 0.00 | 0.00 | 76 | 963.3 |
| 20260903030934 | 61 | 231 | 2.0 | 19.0 | 0.00 | 0.00 | 0.00 | 73 | 963.2 |
| 20260903030433 | 61 | 233 | 7.0 | 19.0 | 0.00 | 0.00 | 0.00 | 72 | 963.0 |
| 20260903025934 | 61 | 212 | 4.0 | 20.0 | 0.00 | 0.00 | 0.00 | 71 | 962.7 |
| 20260903025431 | 61 | 269 | 9.0 | 20.0 | 0.00 | 0.00 | 0.00 | 71 | 962.6 |
| 20260903024933 | 61 | 234 | 5.0 | 16.0 | 0.00 | 0.00 | 0.00 | 72 | 962.7 |
| 20260903024431 | 60 | 326 | 7.0 | 13.0 | 0.00 | 0.00 | 0.00 | 73 | 962.5 |
| 20260903023941 | 60 | 243 | 3.0 | 11.0 | 0.00 | 0.00 | 0.00 | 74 | 963.1 |
| 20260903023933 | 60 | 224 | 0.0 | 11.0 | 0.00 | 0.00 | 0.00 | 74 | 962.7 |
| 20260903022933 | 60 | 251 | 0.0 | 14.0 | 0.00 | 0.00 | 0.00 | 74 | 963.0 |
| 20260903022431 | 60 | 189 | 5.0 | 15.0 | 0.00 | 0.00 | 0.00 | 73 | 963.0 |
| 20260903021934 | 61 | 258 | 2.0 | 17.0 | 0.00 | 0.00 | 0.00 | 74 | 963.3 |
| 20260903021431 | 60 | 250 | 5.0 | 17.0 | 0.00 | 0.00 | 0.00 | 74 | 963.4 |
| 20260903020931 | 60 | 235 | 2.0 | 16.0 | 0.00 | 0.00 | 0.00 | 75 | 963.4 |
| 20260903020431 | 60 | 162 | 4.0 | 16.0 | 0.00 | 0.00 | 0.00 | 74 | 963.5 |
| 20260903015932 | 61 | 173 | 1.0 | 13.0 | 0.00 | 0.00 | 0.00 | 74 | 963.5 |
| 20260903015431 | 61 | 190 | 1.0 | 17.0 | 0.00 | 0.00 | 0.00 | 74 | 963.4 |
| 20260903014932 | 61 | 279 | 5.0 | 17.0 | 0.00 | 0.00 | 0.00 | 74 | 963.4 |
| 20260903014431 | 61 | 282 | 2.0 | 15.0 | 0.00 | 0.00 | 0.00 | 72 | 963.4 |
| 20260903013930 | 60 | 188 | 4.0 | 18.0 | 0.00 | 0.00 | 0.00 | 73 | 963.6 |
| 20260903013431 | 60 | 227 | 6.0 | 22.0 | 0.00 | 0.00 | 0.00 | 74 | 963.5 |
| 20260903012931 | 60 | 266 | 7.0 | 30.0 | 0.00 | 0.00 | 0.00 | 73 | 963.8 |
| 20260903012429 | 60 | 168 | 13.0 | 30.0 | 0.00 | 0.00 | 0.00 | 72 | 963.9 |
| 20260903011933 | 61 | 171 | 13.0 | 28.0 | 0.00 | 0.00 | 0.00 | 71 | 964.1 |
| 20260903011430 | 61 | 223 | 13.0 | 32.0 | 0.00 | 0.00 | 0.00 | 73 | 964.3 |
| 20260903010932 | 62 | 210 | 19.0 | 32.0 | 0.00 | 0.00 | 0.00 | 71 | 963.9 |
| 20260903010429 | 64 | 220 | 16.0 | 40.0 | 0.00 | 0.00 | 0.00 | 69 | 964.0 |
| 20260903005932 | 65 | 213 | 17.0 | 40.0 | 0.00 | 0.00 | 0.00 | 65 | 963.7 |
| 20260903005429 | 66 | 195 | 19.0 | 41.0 | 0.00 | 0.00 | 0.00 | 62 | 963.8 |
| 20260903004930 | 67 | 164 | 19.0 | 41.0 | 0.00 | 0.00 | 0.00 | 57 | 963.8 |
| 20260903004428 | 69 | 124 | 13.0 | 32.0 | 0.00 | 0.00 | 0.00 | 51 | 963.8 |
| 20260903003930 | 74 | 175 | 8.0 | 27.0 | 0.00 | 0.00 | 0.00 | 44 | 963.0 |
| 20260903003429 | 76 | 97 | 1.0 | 9.0 | 0.00 | 0.00 | 0.00 | 41 | 961.8 |
| 20260903002929 | 76 | 0 | 0.0 | 9.0 | 0.00 | 0.00 | 0.00 | 39 | 961.3 |
| 20260903002429 | 76 | 4 | 2.0 | 13.0 | 0.00 | 0.00 | 0.00 | 40 | 961.4 |
| 20260903001929 | 76 | 23 | 0.0 | 13.0 | 0.00 | 0.00 | 0.00 | 39 | 961.3 |
| 20260903001428 | 77 | 54 | 0.0 | 7.0 | 0.00 | 0.00 | 0.00 | 39 | 961.3 |
| 20260903000927 | 77 | 61 | 0.0 | 7.0 | 0.00 | 0.00 | 0.00 | 39 | 961.5 |
| 20260903000435 | 77 | 13 | 2.0 | 10.0 | 0.00 | 0.00 | 0.00 | 38 | 961.3 |
| 20260903000428 | 77 | 69 | 0.0 | 6.0 | 0.00 | 0.00 | 0.00 | 39 | 961.3 |
| 20260902235428 | 78 | 8 | 4.0 | 10.0 | 0.00 | 0.00 | 0.00 | 38 | 961.4 |
| 20260902234929 | 78 | 96 | 1.0 | 11.0 | 0.00 | 0.00 | 0.00 | 38 | 961.3 |
| 20260902234427 | 78 | 69 | 2.0 | 11.0 | 0.00 | 0.00 | 0.00 | 38 | 961.3 |
| 20260902233928 | 78 | 51 | 1.0 | 6.0 | 0.00 | 0.00 | 0.00 | 39 | 961.4 |
| 20260902233427 | 78 | 68 | 1.0 | 9.0 | 0.00 | 0.00 | 0.00 | 39 | 961.4 |
| 20260902232928 | 79 | 59 | 2.0 | 9.0 | 0.00 | 0.00 | 0.00 | 39 | 961.4 |
| 20260902231936 | 81 | 75 | 1.0 | 12.0 | 0.00 | 0.00 | 0.00 | 34 | 961.4 |
| 20260902231928 | 80 | 102 | 2.0 | 12.0 | 0.00 | 0.00 | 0.00 | 36 | 961.4 |
| 20260902230927 | 81 | 73 | 4.0 | 12.0 | 0.00 | 0.00 | 0.00 | 34 | 961.3 |
| 20260902230427 | 81 | 31 | 5.0 | 12.0 | 0.00 | 0.00 | 0.00 | 34 | 961.2 |
| 20260902225927 | 81 | 72 | 3.0 | 12.0 | 0.00 | 0.00 | 0.00 | 37 | 961.3 |
| 20260902225426 | 82 | 0 | 2.0 | 12.0 | 0.00 | 0.00 | 0.00 | 33 | 961.3 |
| 20260902224927 | 81 | 48 | 5.0 | 11.0 | 0.00 | 0.00 | 0.00 | 34 | 961.4 |
| 20260902224425 | 81 | 6 | 5.0 | 11.0 | 0.00 | 0.00 | 0.00 | 34 | 961.3 |
| 20260902223927 | 81 | 71 | 2.0 | 9.0 | 0.00 | 0.00 | 0.00 | 35 | 961.4 |
| 20260902223425 | 81 | 71 | 4.0 | 12.0 | 0.00 | 0.00 | 0.00 | 35 | 961.5 |
| 20260902222927 | 81 | 47 | 2.0 | 13.0 | 0.00 | 0.00 | 0.00 | 35 | 961.5 |
| 20260902222425 | 82 | 13 | 5.0 | 13.0 | 0.00 | 0.00 | 0.00 | 34 | 961.5 |
| 20260902221926 | 82 | 0 | 8.0 | 13.0 | 0.00 | 0.00 | 0.00 | 34 | 961.5 |
| 20260902221433 | 82 | 79 | 1.0 | 11.0 | 0.00 | 0.00 | 0.00 | 36 | 961.6 |
| 20260902221425 | 82 | 109 | 5.0 | 12.0 | 0.00 | 0.00 | 0.00 | 36 | 961.4 |
| 20260902220424 | 82 | 68 | 2.0 | 10.0 | 0.00 | 0.00 | 0.00 | 34 | 961.3 |
| 20260902215926 | 82 | 65 | 2.0 | 10.0 | 0.00 | 0.00 | 0.00 | 34 | 961.4 |
| 20260902215424 | 83 | 23 | 3.0 | 10.0 | 0.00 | 0.00 | 0.00 | 34 | 961.5 |
| 20260902214925 | 83 | 20 | 5.0 | 11.0 | 0.00 | 0.00 | 0.00 | 34 | 961.5 |
| 20260902214425 | 84 | 48 | 5.0 | 11.0 | 0.00 | 0.00 | 0.00 | 33 | 961.5 |
| 20260902213924 | 84 | 100 | 2.0 | 9.0 | 0.00 | 0.00 | 0.00 | 34 | 961.5 |
| 20260902213431 | 84 | 355 | 1.0 | 14.0 | 0.00 | 0.00 | 0.00 | 33 | 961.7 |
| 20260902213425 | 84 | 41 | 3.0 | 14.0 | 0.00 | 0.00 | 0.00 | 33 | 961.7 |
| 20260902212424 | 84 | 55 | 3.0 | 12.0 | 0.00 | 0.00 | 0.00 | 33 | 961.9 |
| 20260902211925 | 84 | 0 | 2.0 | 12.0 | 0.00 | 0.00 | 0.00 | 34 | 962.0 |
| 20260902211423 | 84 | 0 | 7.0 | 12.0 | 0.00 | 0.00 | 0.00 | 34 | 962.0 |
| 20260902210925 | 83 | 8 | 3.0 | 11.0 | 0.00 | 0.00 | 0.00 | 33 | 962.2 |
| 20260902210423 | 83 | 0 | 4.0 | 9.0 | 0.00 | 0.00 | 0.00 | 32 | 962.3 |
| 20260902205926 | 83 | 51 | 3.0 | 9.0 | 0.00 | 0.00 | 0.00 | 33 | 962.3 |
| 20260902205431 | 83 | 1 | 6.0 | 10.0 | 0.00 | 0.00 | 0.00 | 33 | 962.5 |
| 20260902205423 | 83 | 0 | 3.0 | 11.0 | 0.00 | 0.00 | 0.00 | 34 | 962.4 |
| 20260902205051 | 83 | 333 | 6.0 | 11.0 | 0.00 | 0.00 | 0.00 | 34 | 962.6 |
| 20260902204546 | 83 | 1 | 5.0 | 11.0 | 0.00 | 0.00 | 0.00 | 34 | 962.6 |
| 20260902203422 | 83 | 14 | 4.0 | 10.0 | 0.00 | 0.00 | 0.00 | 33 | 962.7 |
| 20260902202922 | 83 | 8 | 3.0 | 10.0 | 0.00 | 0.00 | 0.00 | 34 | 962.7 |
| 20260902202422 | 83 | 10 | 2.0 | 10.0 | 0.00 | 0.00 | 0.00 | 33 | 962.8 |
| 20260902201924 | 83 | 351 | 6.0 | 10.0 | 0.00 | 0.00 | 0.00 | 35 | 962.9 |
| 20260902201421 | 83 | 0 | 7.0 | 10.0 | 0.00 | 0.00 | 0.00 | 35 | 962.9 |
| 20260902200931 | 82 | 10 | 1.0 | 7.0 | 0.00 | 0.00 | 0.00 | 32 | 962.9 |
| 20260902200924 | 83 | 7 | 2.0 | 7.0 | 0.00 | 0.00 | 0.00 | 33 | 962.9 |
| 20260902195922 | 82 | 1 | 5.0 | 7.0 | 0.00 | 0.00 | 0.00 | 32 | 963.1 |
| 20260902195420 | 82 | 1 | 5.0 | 9.0 | 0.00 | 0.00 | 0.00 | 32 | 963.0 |
| 20260902194923 | 81 | 0 | 5.0 | 9.0 | 0.00 | 0.00 | 0.00 | 34 | 963.1 |
| 20260902194428 | 81 | 8 | 0.0 | 1.0 | 0.00 | 0.00 | 0.00 | 39 | 963.1 |
| 20260902194420 | 81 | 8 | 0.0 | 1.0 | 0.00 | 0.00 | 0.00 | 38 | 963.1 |
| 20260902193422 | 81 | 8 | 0.0 | 3.0 | 0.00 | 0.00 | 0.00 | 41 | 963.1 |
| 20260902192921 | 80 | 8 | 0.0 | 3.0 | 0.00 | 0.00 | 0.00 | 44 | 963.2 |
| 20260902192419 | 80 | 8 | 0.0 | 3.0 | 0.00 | 0.00 | 0.00 | 40 | 963.2 |
| 20260902191928 | 79 | 8 | 3.0 | 4.0 | 0.00 | 0.00 | 0.00 | 36 | 963.4 |
| 20260902191920 | 80 | 8 | 1.0 | 4.0 | 0.00 | 0.00 | 0.00 | 40 | 963.3 |
| 20260902190929 | 79 | 8 | 0.0 | 0.0 | 0.00 | 0.00 | 0.00 | 46 | 963.4 |
| 20260902190922 | 79 | 8 | 0.0 | 3.0 | 0.00 | 0.00 | 0.00 | 44 | 963.4 |
| 20260902185921 | 78 | 8 | 0.0 | 0.0 | 0.00 | 0.00 | 0.00 | 42 | 963.4 |
| 20260902185427 | 78 | 8 | 0.0 | 1.0 | 0.00 | 0.00 | 0.00 | 44 | 963.5 |
| 20260902185419 | 78 | 8 | 0.0 | 1.0 | 0.00 | 0.00 | 0.00 | 43 | 963.5 |
| 20260902185049 | 78 | 8 | 0.0 | 1.0 | 0.00 | 0.00 | 0.00 | 45 | 963.5 |
| 20260902183921 | 77 | 8 | 0.0 | 1.0 | 0.00 | 0.00 | 0.00 | 46 | 963.5 |
| 20260902183424 | 77 | 8 | 0.0 | 2.0 | 0.00 | 0.00 | 0.00 | 49 | 963.6 |
| 20260902183418 | 78 | 8 | 0.0 | 2.0 | 0.00 | 0.00 | 0.00 | 49 | 963.5 |
| 20260902182420 | 77 | 8 | 1.0 | 2.0 | 0.00 | 0.00 | 0.00 | 48 | 963.6 |
| 20260902181921 | 77 | 8 | 0.0 | 2.0 | 0.00 | 0.00 | 0.00 | 47 | 963.6 |
| 20260902181419 | 77 | 8 | 0.0 | 2.0 | 0.00 | 0.00 | 0.00 | 47 | 963.7 |
| 20260902180921 | 77 | 7 | 0.0 | 3.0 | 0.00 | 0.00 | 0.00 | 48 | 963.7 |
| 20260902180419 | 77 | 6 | 0.0 | 3.0 | 0.00 | 0.00 | 0.00 | 49 | 963.7 |
| 20260902175921 | 76 | 6 | 0.0 | 3.0 | 0.00 | 0.00 | 0.00 | 51 | 963.7 |
| 20260902175426 | 76 | 0 | 0.0 | 3.0 | 0.00 | 0.00 | 0.00 | 51 | 963.9 |
| 20260902175419 | 76 | 0 | 0.0 | 2.0 | 0.00 | 0.00 | 0.00 | 51 | 963.8 |
| 20260902174419 | 75 | 0 | 0.0 | 3.0 | 0.00 | 0.00 | 0.00 | 51 | 964.0 |
| 20260902173919 | 75 | 0 | 2.0 | 3.0 | 0.00 | 0.00 | 0.00 | 52 | 964.0 |
| 20260902173419 | 74 | 357 | 1.0 | 3.0 | 0.00 | 0.00 | 0.00 | 54 | 964.0 |
| 20260902172927 | 71 | 0 | 0.0 | 0.0 | 0.00 | 0.00 | 0.00 | 59 | 964.0 |
| 20260902172920 | 73 | 358 | 0.0 | 3.0 | 0.00 | 0.00 | 0.00 | 55 | 964.1 |
| 20260902171920 | 71 | 0 | 0.0 | 1.0 | 0.00 | 0.00 | 0.00 | 61 | 964.0 |
| 20260902171423 | 70 | 0 | 0.0 | 1.0 | 0.00 | 0.00 | 0.00 | 59 | 964.4 |
| 20260902171416 | 70 | 0 | 0.0 | 1.0 | 0.00 | 0.00 | 0.00 | 61 | 964.3 |
| 20260902170416 | 70 | 0 | 0.0 | 0.0 | 0.00 | 0.00 | 0.00 | 63 | 964.4 |
| 20260902165920 | 70 | 0 | 0.0 | 1.0 | 0.00 | 0.00 | 0.00 | 65 | 964.4 |
| 20260902165424 | 69 | 0 | 0.0 | 0.0 | 0.00 | 0.00 | 0.00 | 58 | 964.6 |
| 20260902165417 | 69 | 0 | 0.0 | 1.0 | 0.00 | 0.00 | 0.00 | 64 | 964.5 |
| 20260902164416 | 69 | 0 | 0.0 | 0.0 | 0.00 | 0.00 | 0.00 | 60 | 964.4 |
| 20260902163919 | 68 | 0 | 0.0 | 1.0 | 0.00 | 0.00 | 0.00 | 61 | 964.5 |
| 20260902163418 | 68 | 0 | 0.0 | 1.0 | 0.00 | 0.00 | 0.00 | 62 | 964.5 |
| 20260902162918 | 68 | 0 | 0.0 | 1.0 | 0.00 | 0.00 | 0.00 | 62 | 964.6 |
| 20260902162416 | 67 | 358 | 0.0 | 1.0 | 0.00 | 0.00 | 0.00 | 65 | 964.7 |
| 20260902161929 | 67 | 0 | 0.0 | 3.0 | 0.00 | 0.00 | 0.00 | 63 | 964.8 |
| 20260902161920 | 67 | 358 | 0.0 | 0.0 | 0.00 | 0.00 | 0.00 | 61 | 964.7 |
| 20260902160921 | 67 | 0 | 0.0 | 3.0 | 0.00 | 0.00 | 0.00 | 63 | 964.7 |
| 20260902160416 | 67 | 358 | 0.0 | 0.0 | 0.00 | 0.00 | 0.00 | 63 | 964.7 |
| 20260902155918 | 67 | 358 | 0.0 | 0.0 | 0.00 | 0.00 | 0.00 | 65 | 964.8 |
| 20260902155415 | 66 | 358 | 0.0 | 1.0 | 0.00 | 0.00 | 0.00 | 67 | 964.8 |
| 20260902154917 | 64 | 358 | 0.0 | 1.0 | 0.00 | 0.00 | 0.00 | 70 | 964.9 |
| 20260902154415 | 63 | 358 | 0.0 | 0.0 | 0.00 | 0.00 | 0.00 | 70 | 965.0 |
| 20260902153919 | 62 | 358 | 0.0 | 0.0 | 0.00 | 0.00 | 0.00 | 70 | 965.0 |
| 20260902153415 | 61 | 358 | 0.0 | 0.0 | 0.00 | 0.00 | 0.00 | 72 | 965.1 |
| 20260902152918 | 60 | 358 | 0.0 | 3.0 | 0.00 | 0.00 | 0.00 | 71 | 965.2 |
| 20260902152414 | 60 | 358 | 0.0 | 3.0 | 0.00 | 0.00 | 0.00 | 72 | 965.2 |
| 20260902151921 | 59 | 358 | 1.0 | 3.0 | 0.00 | 0.00 | 0.00 | 73 | 965.2 |
| 20260902151414 | 59 | 358 | 0.0 | 1.0 | 0.00 | 0.00 | 0.00 | 73 | 965.2 |
| 20260902150919 | 59 | 358 | 0.0 | 1.0 | 0.00 | 0.00 | 0.00 | 72 | 965.2 |
| 20260902150422 | 58 | 358 | 0.0 | 2.0 | 0.00 | 0.00 | 0.00 | 72 | 965.4 |
| 20260902150414 | 58 | 358 | 0.0 | 2.0 | 0.00 | 0.00 | 0.00 | 72 | 965.3 |
| 20260902145415 | 58 | 357 | 0.0 | 1.0 | 0.00 | 0.00 | 0.00 | 73 | 965.4 |
| 20260902144915 | 58 | 357 | 0.0 | 1.0 | 0.00 | 0.00 | 0.00 | 73 | 965.4 |
| 20260902144414 | 58 | 357 | 0.0 | 2.0 | 0.00 | 0.00 | 0.00 | 73 | 965.4 |
| 20260902143923 | 57 | 357 | 1.0 | 3.0 | 0.00 | 0.00 | 0.00 | 73 | 965.5 |
| 20260902143915 | 58 | 357 | 0.0 | 2.0 | 0.00 | 0.00 | 0.00 | 73 | 965.4 |
| 20260902142915 | 57 | 357 | 0.0 | 3.0 | 0.00 | 0.00 | 0.00 | 73 | 965.5 |
| 20260902142412 | 57 | 357 | 0.0 | 1.0 | 0.00 | 0.00 | 0.00 | 73 | 965.6 |
| 20260902141915 | 57 | 358 | 0.0 | 2.0 | 0.00 | 0.00 | 0.00 | 73 | 965.6 |
| 20260902141413 | 57 | 358 | 0.0 | 2.0 | 0.00 | 0.00 | 0.00 | 72 | 965.8 |
| 20260902140915 | 57 | 358 | 0.0 | 2.0 | 0.00 | 0.00 | 0.00 | 72 | 965.7 |
| 20260902140413 | 57 | 358 | 0.0 | 2.0 | 0.00 | 0.00 | 0.00 | 73 | 965.8 |
| 20260902135923 | 56 | 357 | 0.0 | 3.0 | 0.00 | 0.00 | 0.00 | 75 | 965.6 |
| 20260902135914 | 56 | 358 | 0.0 | 2.0 | 0.00 | 0.00 | 0.00 | 74 | 965.7 |
| 20260902134412 | 56 | 357 | 0.0 | 4.0 | 0.00 | 0.00 | 0.00 | 76 | 965.2 |
| 20260902133913 | 55 | 358 | 0.0 | 2.0 | 0.00 | 0.00 | 0.00 | 76 | 965.1 |
| 20260902133420 | 54 | 207 | 0.0 | 0.0 | 0.00 | 0.00 | 0.00 | 77 | 965.2 |
| 20260902133412 | 55 | 357 | 0.0 | 1.0 | 0.00 | 0.00 | 0.00 | 76 | 965.1 |
| 20260902132411 | 54 | 207 | 0.0 | 0.0 | 0.00 | 0.00 | 0.00 | 78 | 965.4 |
| 20260902131914 | 54 | 207 | 0.0 | 2.0 | 0.00 | 0.00 | 0.00 | 78 | 965.4 |
| 20260902131411 | 54 | 207 | 0.0 | 2.0 | 0.00 | 0.00 | 0.00 | 79 | 965.6 |
| 20260902130912 | 53 | 247 | 0.0 | 0.0 | 0.00 | 0.00 | 0.00 | 79 | 965.4 |
| 20260902130410 | 53 | 247 | 0.0 | 0.0 | 0.00 | 0.00 | 0.00 | 79 | 965.2 |
| 20260902125912 | 53 | 247 | 0.0 | 1.0 | 0.00 | 0.00 | 0.00 | 79 | 965.2 |
| 20260902125410 | 53 | 247 | 0.0 | 1.0 | 0.00 | 0.00 | 0.00 | 79 | 965.1 |
| 20260902124913 | 53 | 247 | 0.0 | 2.0 | 0.00 | 0.00 | 0.00 | 79 | 965.2 |
| 20260902124410 | 53 | 247 | 0.0 | 2.0 | 0.00 | 0.00 | 0.00 | 79 | 965.2 |
| 20260902123912 | 53 | 247 | 0.0 | 1.0 | 0.00 | 0.00 | 0.00 | 79 | 965.3 |
| 20260902123410 | 53 | 247 | 0.0 | 1.0 | 0.00 | 0.00 | 0.00 | 79 | 965.3 |
| 20260902122920 | 53 | 247 | 0.0 | 1.0 | 0.00 | 0.00 | 0.00 | 78 | 965.3 |
| 20260902122912 | 53 | 247 | 0.0 | 1.0 | 0.00 | 0.00 | 0.00 | 78 | 965.4 |
| 20260902121911 | 53 | 247 | 0.0 | 5.0 | 0.00 | 0.00 | 0.00 | 78 | 965.2 |
| 20260902121410 | 53 | 247 | 0.0 | 5.0 | 0.00 | 0.00 | 0.00 | 78 | 965.4 |
| 20260902120911 | 53 | 247 | 1.0 | 5.0 | 0.00 | 0.00 | 0.00 | 78 | 965.3 |
| 20260902120411 | 53 | 247 | 0.0 | 1.0 | 0.00 | 0.00 | 0.00 | 78 | 965.3 |
| 20260902115911 | 53 | 247 | 0.0 | 0.0 | 0.00 | 0.00 | 0.00 | 78 | 965.3 |
| 20260902115409 | 53 | 247 | 0.0 | 0.0 | 0.00 | 0.00 | 0.00 | 78 | 965.3 |
| 20260902114911 | 53 | 247 | 0.0 | 1.0 | 0.00 | 0.00 | 0.00 | 76 | 965.3 |
| 20260902114408 | 53 | 247 | 0.0 | 3.0 | 0.00 | 0.00 | 0.00 | 75 | 965.3 |
| 20260902113910 | 53 | 247 | 0.0 | 1.0 | 0.00 | 0.00 | 0.00 | 75 | 965.3 |
| 20260902113408 | 53 | 245 | 0.0 | 1.0 | 0.00 | 0.00 | 0.00 | 74 | 965.3 |
| 20260902112911 | 54 | 244 | 0.0 | 1.0 | 0.00 | 0.00 | 0.00 | 74 | 965.5 |
| 20260902112409 | 54 | 244 | 0.0 | 0.0 | 0.00 | 0.00 | 0.00 | 74 | 965.5 |
| 20260902111910 | 54 | 244 | 0.0 | 0.0 | 0.00 | 0.00 | 0.00 | 73 | 965.6 |
| 20260902111416 | 54 | 244 | 0.0 | 0.0 | 0.00 | 0.00 | 0.00 | 71 | 965.5 |
| 20260902111409 | 54 | 244 | 0.0 | 0.0 | 0.00 | 0.00 | 0.00 | 72 | 965.5 |
| 20260902110409 | 55 | 245 | 0.0 | 0.0 | 0.00 | 0.00 | 0.00 | 71 | 965.5 |
| 20260902105908 | 55 | 244 | 0.0 | 0.0 | 0.00 | 0.00 | 0.00 | 71 | 965.5 |
| 20260902105416 | 55 | 244 | 0.0 | 0.0 | 0.00 | 0.00 | 0.00 | 70 | 965.5 |
| 20260902105408 | 55 | 244 | 0.0 | 0.0 | 0.00 | 0.00 | 0.00 | 71 | 965.5 |
| 20260902104409 | 55 | 244 | 0.0 | 0.0 | 0.00 | 0.00 | 0.00 | 70 | 965.5 |
| 20260902103909 | 55 | 244 | 0.0 | 0.0 | 0.00 | 0.00 | 0.00 | 69 | 965.5 |
| 20260902103408 | 55 | 244 | 0.0 | 1.0 | 0.00 | 0.00 | 0.00 | 69 | 965.6 |
| 20260902102908 | 56 | 244 | 0.0 | 1.0 | 0.00 | 0.00 | 0.00 | 69 | 965.5 |
| 20260902102415 | 56 | 244 | 0.0 | 1.0 | 0.00 | 0.00 | 0.00 | 68 | 965.5 |
| 20260902102407 | 56 | 244 | 0.0 | 0.0 | 0.00 | 0.00 | 0.00 | 69 | 965.5 |
| 20260902101415 | 56 | 244 | 0.0 | 0.0 | 0.00 | 0.00 | 0.00 | 67 | 965.7 |
| 20260902101407 | 56 | 244 | 0.0 | 1.0 | 0.00 | 0.00 | 0.00 | 67 | 965.6 |
| 20260902101034 | 56 | 244 | 0.0 | 0.0 | 0.00 | 0.00 | 0.00 | 67 | 965.6 |
| 20260902095909 | 56 | 244 | 0.0 | 0.0 | 0.00 | 0.00 | 0.00 | 69 | 965.6 |
| 20260902095406 | 56 | 244 | 0.0 | 0.0 | 0.00 | 0.00 | 0.00 | 68 | 965.6 |
| 20260902094909 | 56 | 244 | 0.0 | 0.0 | 0.00 | 0.00 | 0.00 | 67 | 965.7 |
| 20260902094407 | 56 | 244 | 0.0 | 0.0 | 0.00 | 0.00 | 0.00 | 67 | 965.7 |
| 20260902093907 | 56 | 244 | 0.0 | 0.0 | 0.00 | 0.00 | 0.00 | 67 | 965.8 |
| 20260902093406 | 56 | 244 | 0.0 | 0.0 | 0.00 | 0.00 | 0.00 | 67 | 965.9 |
| 20260902092907 | 56 | 244 | 0.0 | 0.0 | 0.00 | 0.00 | 0.00 | 67 | 966.0 |
| 20260902092406 | 56 | 244 | 0.0 | 0.0 | 0.00 | 0.00 | 0.00 | 67 | 966.0 |
| 20260902091908 | 56 | 244 | 0.0 | 0.0 | 0.00 | 0.00 | 0.00 | 67 | 966.1 |
| 20260902091407 | 56 | 244 | 0.0 | 1.0 | 0.00 | 0.00 | 0.00 | 67 | 966.1 |
| 20260902090914 | 57 | 243 | 0.0 | 2.0 | 0.00 | 0.00 | 0.00 | 68 | 966.1 |
| 20260902090907 | 56 | 244 | 0.0 | 2.0 | 0.00 | 0.00 | 0.00 | 67 | 966.1 |
| 20260902090529 | 57 | 241 | 0.0 | 4.0 | 0.00 | 0.00 | 0.00 | 68 | 966.0 |
| 20260902085413 | 57 | 231 | 0.0 | 0.0 | 0.00 | 0.00 | 0.00 | 67 | 966.1 |
| 20260902085405 | 57 | 241 | 0.0 | 4.0 | 0.00 | 0.00 | 0.00 | 67 | 966.0 |
| 20260902085033 | 57 | 230 | 0.0 | 0.0 | 0.00 | 0.00 | 0.00 | 66 | 965.9 |
| 20260902083907 | 57 | 230 | 0.0 | 2.0 | 0.00 | 0.00 | 0.00 | 66 | 965.9 |
| 20260902083405 | 57 | 226 | 0.0 | 3.0 | 0.00 | 0.00 | 0.00 | 67 | 966.0 |
| 20260902082907 | 57 | 224 | 0.0 | 3.0 | 0.00 | 0.00 | 0.00 | 66 | 965.9 |
| 20260902082404 | 57 | 224 | 0.0 | 1.0 | 0.00 | 0.00 | 0.00 | 66 | 966.0 |
| 20260902081907 | 57 | 224 | 0.0 | 1.0 | 0.00 | 0.00 | 0.00 | 65 | 966.0 |
| 20260902081403 | 57 | 220 | 0.0 | 0.0 | 0.00 | 0.00 | 0.00 | 65 | 966.0 |
| 20260902080905 | 57 | 220 | 0.0 | 0.0 | 0.00 | 0.00 | 0.00 | 65 | 966.1 |
| 20260902080403 | 58 | 220 | 0.0 | 0.0 | 0.00 | 0.00 | 0.00 | 66 | 966.0 |
| 20260902075905 | 58 | 219 | 0.0 | 0.0 | 0.00 | 0.00 | 0.00 | 66 | 966.0 |
| 20260902075412 | 58 | 219 | 0.0 | 2.0 | 0.00 | 0.00 | 0.00 | 65 | 966.2 |
| 20260902075405 | 58 | 219 | 0.0 | 0.0 | 0.00 | 0.00 | 0.00 | 65 | 966.1 |
| 20260902074404 | 58 | 219 | 0.0 | 2.0 | 0.00 | 0.00 | 0.00 | 65 | 966.4 |
| 20260902073912 | 57 | 268 | 0.0 | 2.0 | 0.00 | 0.00 | 0.00 | 64 | 966.5 |
| 20260902073904 | 58 | 266 | 0.0 | 2.0 | 0.00 | 0.00 | 0.00 | 64 | 966.5 |
| 20260902072905 | 57 | 269 | 0.0 | 2.0 | 0.00 | 0.00 | 0.00 | 65 | 966.5 |
| 20260902072402 | 57 | 269 | 0.0 | 0.0 | 0.00 | 0.00 | 0.00 | 66 | 966.5 |
| 20260902071905 | 58 | 269 | 0.0 | 0.0 | 0.00 | 0.00 | 0.00 | 68 | 966.5 |
| 20260902071403 | 58 | 269 | 0.0 | 3.0 | 0.00 | 0.00 | 0.00 | 69 | 966.4 |
| 20260902070905 | 58 | 269 | 0.0 | 3.0 | 0.00 | 0.00 | 0.00 | 69 | 966.4 |
| 20260902070402 | 58 | 275 | 0.0 | 4.0 | 0.00 | 0.00 | 0.00 | 69 | 966.2 |
| 20260902065905 | 58 | 275 | 0.0 | 4.0 | 0.00 | 0.00 | 0.00 | 71 | 966.2 |
| 20260902065402 | 57 | 227 | 0.0 | 1.0 | 0.00 | 0.00 | 0.00 | 70 | 966.2 |
| 20260902064911 | 57 | 197 | 0.0 | 1.0 | 0.00 | 0.00 | 0.00 | 67 | 966.1 |
| 20260902064904 | 57 | 197 | 0.0 | 1.0 | 0.00 | 0.00 | 0.00 | 70 | 966.2 |
| 20260902063911 | 57 | 199 | 0.0 | 0.0 | 0.00 | 0.00 | 0.00 | 69 | 966.2 |
| 20260902063903 | 57 | 199 | 0.0 | 0.0 | 0.00 | 0.00 | 0.00 | 68 | 966.1 |
| 20260902062903 | 58 | 199 | 0.0 | 0.0 | 0.00 | 0.00 | 0.00 | 69 | 966.1 |
| 20260902062403 | 58 | 197 | 0.0 | 0.0 | 0.00 | 0.00 | 0.00 | 68 | 966.1 |
| 20260902061902 | 58 | 197 | 0.0 | 0.0 | 0.00 | 0.00 | 0.00 | 68 | 966.4 |
| 20260902061402 | 58 | 197 | 0.0 | 0.0 | 0.00 | 0.00 | 0.00 | 68 | 966.4 |
| 20260902060902 | 58 | 197 | 0.0 | 1.0 | 0.00 | 0.00 | 0.00 | 67 | 966.5 |
| 20260902060407 | 58 | 197 | 0.0 | 2.0 | 0.00 | 0.00 | 0.00 | 65 | 966.4 |
| 20260902060400 | 58 | 197 | 0.0 | 2.0 | 0.00 | 0.00 | 0.00 | 66 | 966.7 |
| 20260902055408 | 58 | 197 | 0.0 | 0.0 | 0.00 | 0.00 | 0.00 | 65 | 966.2 |
| 20260902055401 | 58 | 199 | 0.0 | 2.0 | 0.00 | 0.00 | 0.00 | 65 | 966.4 |
| 20260902054407 | 58 | 197 | 0.0 | 3.0 | 0.00 | 0.00 | 0.00 | 64 | 966.1 |
| 20260902054400 | 58 | 197 | 0.0 | 0.0 | 0.00 | 0.00 | 0.00 | 65 | 966.1 |